Regional Weather Roundup
Issued by NWS New Orleans/Baton Rouge, LA

Home | Current Version | Previous Version | Graphics & Text | Print | Product List | Glossary On
Versions: 1 2 3 4 5 6 7 8 9 10 11 12 13 14 15 16 17 18 19 20 21 22 23 24 25 26 27 28 29 30 31 32 33 34 35 36 37 38 39 40 41 42 43 44 45 46 47 48 49 50
719
ASUS44 KLIX 272001
RWRLIX
NEW ORLEANS REGIONAL WEATHER ROUNDUP
NATIONAL WEATHER SERVICE NEW ORLEANS LA
200 PM CST FRI FEB 27 2015

NOTE: "FAIR" INDICATES FEW OR NO CLOUDS BELOW 12,000 FEET WITH NO
      SIGNIFICANT WEATHER AND/OR OBSTRUCTIONS TO VISIBILITY.
      SKY/WX - SKY CONDITION AND SIGNIFICANT WEATHER.
      TMP - AIR TEMPERATURE.     DP    - DEWPOINT TEMPERATURE.
      RH  - RELATIVE HUMIDITY.   PRES  - PRESSURE.
      HI  - HEAT INDEX.          WCI   - WIND CHILL INDEX.

*  THESE STATIONS ARE NOT NWS OR FAA STATIONS AND ARE NOT UNDER
   NWS QUALITY CONTROL.

LAZ038-040-048-061>063-065>067-069-272100-
SOUTHEAST LOUISIANA

CITY           SKY/WX    TMP DP  RH WIND       PRES   REMARKS
N.O. AUDUBON     N/A     54  36  51 MISG        N/A
N.O. INTL ARPT MOSUNNY   50  34  54 NE9       30.33F
N.O. LAKEFRONT SUNNY     52  32  46 N5        30.33F
SLIDELL        SUNNY     53  31  42 E9        30.31F
BATON ROUGE    SUNNY     49  32  52 NE10      30.34F
BOOTHVILLE     CLOUDY    50  40  68 NE12G18   30.32F
BELLE CHASSE   MOSUNNY   53  30  41 E10       30.31F
BOGALUSA*        N/A     48  32  53 NE8       30.36F
GALLIANO*      PTCLDY    52  36  54 MISG      30.32F
NEW ROADS*     NOT AVBL
GONZALES*      NOT AVBL
HAMMOND*       NOT AVBL
HOUMA*         NOT AVBL
PORT FOURCHON* NOT AVBL

$$

MSZ070-080>082-272100-
SOUTHERN MISSISSIPPI

CITY           SKY/WX    TMP DP  RH WIND       PRES   REMARKS
MCCOMB         SUNNY     45  29  53 VRB7      30.35F
GULFPORT       SUNNY     54  30  40 N10G18    30.30F
BILOXI         NOT AVBL
PASCAGOULA     SUNNY     56  30  37 NE16      30.30F
STENNIS ARPT*  SUNNY     54  27  35 NE8G17    30.32F

$$

COASTAL OBSERVATIONS
LAKE AND NEARSHORE STATIONS

STATION/POSITION TIME  TEMP    WIND        PRES    WAVE
                       AIR SEA DIR/SP/G            HT/PER
                 (UTC) (F)     (DEG/KT/KT) (MB)    (FT/S)
PASCAGOULA       1919   53      10/ 10/ 15 1026.3
WAVELAND YACHT   1919   48 48   20/ 10/ 13 1026.8
GRAND ISLE       1919   46 51   50/ 15/ 19 1026.9
SOUTHWEST PASS   1919   56 48   50/ 17/ 21 1025.9
NEW CANAL        1919   45      40/  5/  7 1027.9
SHELL BEACH      1919   45 50   40/ 12/ 14 1027.3

OFFSHORE STATIONS

STATION/POSITION TIME  TEMP    WIND        PRES    WAVE
                       AIR SEA DIR/SP/G            HT/PER
                 (UTC) (F)     (DEG/KT/KT) (MB)    (FT/S)
64 S DAUPHIN ISL 1920   52 68   50/ 19/ 23 1025.5    6/ 7

$$




USA.gov is the U.S. government's official web portal to all federal, state and local government web resources and services.